This is the latest recevied weather packets stored in our database for station/object KM8V-8. If no packets are shown the sender has not sent any weather packets the latest 1 day(s).
| Time | Temp. | Humidity | Pressure | Rain* | Wind** | Luminosity | Snow |
|---|---|---|---|---|---|---|---|
| 1778082618 | 10.56° C | 79% | 1011.6 hPa | 0 mm | - | 827 W/m² | - |
| 1778082323 | 10° C | 82% | 1011.5 hPa | 0 mm | - | 855 W/m² | - |
| 1778081117 | 10° C | 82% | 1011 hPa | 0 mm | - | 807 W/m² | - |
| 1778079919 | 10° C | 84% | 1010.7 hPa | 0 mm | - | 585 W/m² | - |
| 1778079619 | 10° C | 84% | 1010.8 hPa | 0 mm | - | 539 W/m² | - |
| 1778077218 | 10° C | 86% | 1010.3 hPa | 0 mm | - | 343 W/m² | - |
| 1778076918 | 10° C | 87% | 1010.2 hPa | 0 mm | - | 330 W/m² | - |
| 1778076618 | 9.44° C | 88% | 1010.2 hPa | 0 mm | - | 305 W/m² | - |
| 1778076318 | 9.44° C | 89% | 1010.2 hPa | 0 mm | - | 284 W/m² | - |
| 1778076018 | 9.44° C | 89% | 1010.3 hPa | 0 mm | - | 229 W/m² | - |
| 1778074819 | 8.89° C | 89% | 1010.3 hPa | 0 mm | - | 208 W/m² | - |
| 1778073319 | 8.33° C | 97% | 1010.1 hPa | 0 mm | - | 167 W/m² | - |
| 1778073019 | 7.78° C | 98% | 1010.1 hPa | 0 mm | - | 127 W/m² | - |
| 1778072719 | 7.78° C | 99% | 1010 hPa | 0 mm | - | 134 W/m² | - |
| 1778072119 | 7.78° C | 100% | 1009.7 hPa | 0 mm | - | 159 W/m² | - |
| 1778071819 | 7.78° C | 100% | 1009.8 hPa | 0 mm | - | 138 W/m² | - |
| 1778070320 | 7.78° C | 100% | 1009.6 hPa | 0 mm | - | 56 W/m² | - |
| 1778069720 | 7.78° C | 100% | 1009.7 hPa | 0 mm | - | 47 W/m² | - |
| 1778069420 | 7.78° C | 100% | 1009.8 hPa | 0 mm | - | 36 W/m² | - |
| 1778069120 | 7.78° C | 100% | 1009.8 hPa | 0 mm | - | 41 W/m² | - |
| 1778068520 | 7.78° C | 100% | 1009.6 hPa | 0 mm | - | 35 W/m² | - |
| 1778066721 | 7.22° C | 100% | 1008.9 hPa | 0 mm | - | 22 W/m² | - |
| 1778066421 | 7.22° C | 100% | 1008.9 hPa | 0 mm | - | 19 W/m² | - |
| 1778066121 | 7.22° C | 100% | 1008.9 hPa | 0 mm | - | 18 W/m² | - |
| 1778064022 | 7.22° C | 100% | 1008.2 hPa | 0 mm | - | 6 W/m² | - |
* Rain latest hour (hover to see other rain measurements)
** Current wind speed in m/s (hover to see current wind gust speed)